Home > Weather > Freising > Past weeks

Flag for Germany Past Weather in Freising, Bavaria, Germany — Yesterday and Last 2 Weeks

Now
64 °F

Clear.


Feels Like: 64 °F
Forecast: 53 / 73 °F
Wind: 3 mph from West

Location: Munich / Franz Josef Strauss Airport

Current Time: Aug 29, 2016 at 11:57:25 PM

Latest Report: Aug 29, 2016 at 11:20 PM


Visibility: 10 mi

Pressure: 30.18 "Hg

Humidity: 94%

Dew Point: 63 °F

Location of FreisingLocation

Past Weather in Freising — Graph

°F

Freising Temperature Yesterday

Maximum temperature yesterday: 86 °F (at 3:20 PM)
Minimum temperature yesterday: 54 °F (at 4:20 AM)
Average temperature yesterday: 71 °F

High & Low Weather Summary for the Past Weeks

 TemperatureHumidityPressure
High86 °F (Aug 28, 3:20 PM)100% (Aug 15, 1:50 AM)30.42 "Hg (Aug 15, 1:50 AM)
Low50 °F (Aug 16, 5:50 AM)30% (Aug 25, 4:50 PM)29.83 "Hg (Aug 18, 12:50 PM)
Average66 °F75%30.11 "Hg
* Reported Aug 14 10:20 PM — Aug 29 10:20 PM, Freising, Weather by CustomWeather, © 2016

Note: Actual official high and low records may vary slightly from our data, if they occured in-between our weather recording intervals... More about our weather records

Advertising

Freising Weather History for the Previous 24 Hours

Scroll right to see more
 ConditionsComfort  
Time TempWeatherWind HumidityBarometerVisibility
10:20 PM
Mon, Aug 29
64 °FSprinkles. Passing clouds.3 mph94%30.18 "HgN/A
9:50 PM64 °FPassing clouds.3 mph94%30.18 "HgN/A
9:20 PM66 °FSprinkles. Passing clouds.7 mph88%30.15 "HgN/A
8:50 PM66 °FSunny.7 mph88%30.15 "Hg10 mi
8:20 PM66 °FPartly sunny.12 mph94%30.15 "HgN/A
7:50 PM66 °FScattered showers. Partly sunny.9 mph94%30.12 "HgN/A
7:20 PM66 °FScattered showers. Partly sunny.8 mph94%30.12 "HgN/A
6:50 PM70 °FSprinkles. Broken clouds.7 mph73%30.12 "HgN/A
6:20 PM70 °FScattered showers. Broken clouds.8 mph73%30.12 "HgN/A
5:50 PM72 °FScattered clouds.10 mph69%30.12 "HgN/A
5:20 PM72 °FScattered clouds.8 mph65%30.12 "HgN/A
4:50 PM73 °FScattered clouds.7 mph61%30.12 "HgN/A
4:20 PM72 °FPassing clouds.6 mph65%30.12 "HgN/A
3:50 PM70 °FScattered clouds.9 mph73%30.12 "HgN/A
3:20 PM68 °FPartly sunny.8 mph83%30.12 "HgN/A
2:50 PM66 °FPartly sunny.10 mph94%30.15 "HgN/A
2:20 PM64 °FPartly sunny.7 mph100%30.15 "HgN/A
1:50 PM64 °FPartly sunny.7 mph100%30.15 "HgN/A
1:20 PM63 °FSprinkles. Partly sunny.7 mph100%30.15 "HgN/A
12:50 PM64 °FRain showers. Partly sunny.10 mph94%30.18 "Hg6 mi
12:20 PM64 °FRain showers. Partly sunny.8 mph94%30.18 "Hg5 mi
11:50 AM66 °FLots of rain. Partly sunny.10 mph94%30.18 "Hg2 mi
11:20 AM68 °FRain showers. Partly sunny.6 mph83%30.12 "HgN/A
10:50 AM68 °FThundershowers. Partly sunny.5 mph83%30.12 "HgN/A
10:20 AM68 °FThundershowers. Partly sunny.5 mph78%30.12 "HgN/A
9:50 AM70 °FSprinkles. Partly sunny.7 mph73%30.12 "HgN/A
9:20 AM70 °FScattered showers. Broken clouds.3 mph73%30.12 "HgN/A
8:50 AM68 °FSunny.2 mph78%30.09 "Hg10 mi
8:20 AM68 °FPassing clouds.6 mph73%30.09 "HgN/A
7:50 AM68 °FPassing clouds.5 mph78%30.09 "HgN/A
7:20 AM64 °FClear.2 mph88%30.09 "Hg10 mi
6:50 AM64 °FPassing clouds.6 mph88%30.09 "HgN/A
6:20 AM64 °FPassing clouds.6 mph88%30.07 "HgN/A
5:50 AM66 °FSprinkles. Partly cloudy.3 mph83%30.07 "HgN/A
5:20 AM66 °FThundershowers. Passing clouds.8 mph88%30.07 "HgN/A
4:50 AM66 °FPassing clouds.5 mph83%30.07 "HgN/A
4:20 AM68 °FThundershowers. Partly cloudy.8 mph78%30.07 "HgN/A
3:50 AM70 °FThunderstorms. Partly cloudy.12 mph73%30.07 "HgN/A
3:20 AM64 °FThundershowers. Partly cloudy.9 mph94%30.07 "HgN/A
2:50 AM64 °FClear.9 mph88%30.07 "Hg10 mi
2:20 AM64 °FClear.5 mph83%30.07 "Hg10 mi
1:50 AM66 °FPassing clouds.3 mph83%30.07 "HgN/A
1:20 AM66 °FClear.7 mph83%30.07 "Hg10 mi
12:50 AM66 °FPassing clouds.3 mph83%30.07 "HgN/A
12:20 AM68 °FClear.7 mph78%30.04 "Hg10 mi
11:50 PM
Sun, Aug 28
70 °FClear.7 mph73%30.04 "Hg10 mi
11:20 PM70 °FPassing clouds.7 mph78%30.04 "HgN/A
Weather by CustomWeather, © 2016

See weather overviewHow to use our weather pages